FW7487 Weather Reports


Display with metric or nautical units.
time (UTC)temp
F
wind
direction
speed
MPH
gust
MPH
rain 1hr
in
rain 24hr
in
rain mn
in
humidity
%
barometer
mb
20260902064600 75 0 0.0 0.0 0.00 0.00 0.00 89 1019.3
20260902063114 76 0 0.0 0.0 0.00 0.00 0.00 88 1019.1
20260902061554 76 0 0.0 0.0 0.00 0.00 0.00 88 1019.3
20260902060126 76 0 0.0 0.0 0.00 0.00 0.00 88 1019.2
20260902054610 76 0 0.0 0.0 0.00 0.00 0.00 88 1019.4
20260902053114 76 0 0.0 0.0 0.00 0.00 0.00 87 1019.6
20260902051603 76 0 0.0 0.0 0.00 0.00 0.00 87 1019.5
20260902050105 76 0 0.0 0.0 0.00 0.00 0.00 87 1019.4
20260902044607 77 0 0.0 0.0 0.00 0.00 0.00 86 1019.5
20260902043110 77 0 0.0 1.0 0.00 0.00 0.00 85 1019.4
20260902041607 77 0 0.0 0.0 0.00 0.00 0.00 85 1019.5
20260902040107 78 0 0.0 0.0 0.00 0.00 0.00 84 1019.6
20260902034614 78 0 0.0 0.0 0.00 0.00 0.00 84 1019.6
20260902033058 78 0 0.0 1.0 0.00 0.00 0.00 83 1019.5
20260902031606 78 0 0.0 0.0 0.00 0.00 0.00 83 1019.6
20260902030100 79 0 0.0 1.0 0.00 0.00 0.00 82 1019.7
20260902024559 79 0 0.0 0.0 0.00 0.00 0.00 81 1019.6
20260902023059 80 0 0.0 1.0 0.00 0.00 0.00 80 1019.5
20260902021552 80 0 0.0 1.0 0.00 0.00 0.00 78 1019.3
20260902020058 81 0 0.0 0.0 0.00 0.00 0.00 78 1019.0
20260902014559 81 177 0.0 1.0 0.00 0.00 0.00 78 1019.1
20260902013059 82 0 0.0 0.0 0.00 0.00 0.00 76 1018.9
20260902011554 82 0 0.0 1.0 0.00 0.00 0.00 75 1018.6
20260902010101 83 0 0.0 0.0 0.00 0.00 0.00 73 1018.4
20260902004602 84 0 0.0 0.0 0.00 0.00 0.00 71 1018.3
20260902003129 84 0 0.0 4.0 0.00 0.00 0.00 71 1018.2
20260902001600 85 0 0.0 0.0 0.00 0.00 0.00 68 1018.1
20260902000059 86 0 0.0 0.0 0.00 0.00 0.00 65 1018.2
20260901234559 88 0 0.0 0.0 0.00 0.00 0.00 62 1018.3
20260901233127 90 0 0.0 3.0 0.00 0.00 0.00 57 1018.3
20260901231559 91 0 0.0 3.0 0.00 0.00 0.00 53 1018.1
20260901230100 91 0 0.0 4.0 0.00 0.00 0.00 54 1018.1
20260901224553 93 306 1.0 4.0 0.00 0.00 0.00 49 1018.3
20260901223102 94 0 0.0 6.0 0.00 0.00 0.00 47 1018.2
20260901221616 95 169 1.0 5.0 0.00 0.00 0.00 47 1018.2
20260901220059 96 155 1.0 6.0 0.00 0.00 0.00 46 1018.1
20260901214606 95 17 1.0 4.0 0.00 0.00 0.00 47 1018.2
20260901213103 95 308 2.0 5.0 0.00 0.00 0.00 47 1018.3
20260901211600 94 202 1.0 7.0 0.00 0.00 0.00 48 1018.3
20260901210130 96 166 2.0 6.0 0.00 0.00 0.00 44 1018.2
20260901204558 94 257 1.0 4.0 0.00 0.00 0.00 46 1018.4
20260901203105 94 0 0.0 6.0 0.00 0.00 0.00 50 1018.6
20260901201604 95 321 3.0 10.0 0.00 0.00 0.00 47 1018.6
20260901194604 93 0 1.0 9.0 0.00 0.00 0.00 53 1018.9
20260901193104 92 314 1.0 7.0 0.00 0.00 0.00 54 1019.2
20260901191614 94 138 1.0 5.0 0.00 0.00 0.00 48 1019.4
20260901190133 95 162 1.0 4.0 0.00 0.00 0.00 49 1019.6
20260901184557 94 91 2.0 6.0 0.00 0.00 0.00 47 1019.8
20260901183108 95 121 2.0 7.0 0.00 0.00 0.00 48 1019.9
20260901181558 94 327 2.0 8.0 0.00 0.00 0.00 48 1020.0
20260901174602 91 340 2.0 10.0 0.00 0.00 0.00 60 1020.4
20260901173055 93 210 1.0 5.0 0.00 0.00 0.00 56 1020.6
20260901171635 90 306 4.0 11.0 0.00 0.00 0.00 58 1020.7
20260901170107 93 0 1.0 5.0 0.00 0.00 0.00 56 1020.8
20260901164614 92 315 2.0 7.0 0.00 0.00 0.00 61 1021.0
20260901163115 88 315 1.0 8.0 0.00 0.00 0.00 64 1021.2
20260901161556 89 317 3.0 11.0 0.00 0.00 0.00 63 1021.4
20260901160101 89 346 2.0 8.0 0.00 0.00 0.00 66 1021.4
20260901154559 87 344 2.0 7.0 0.00 0.00 0.00 67 1021.5
20260901153058 87 72 1.0 7.0 0.00 0.00 0.00 68 1021.4
20260901151547 86 82 1.0 5.0 0.00 0.00 0.00 71 1021.5
20260901150100 87 0 0.0 5.0 0.00 0.00 0.00 76 1021.5
20260901144602 84 319 4.0 10.0 0.00 0.00 0.00 77 1021.6
20260901143053 84 317 3.0 6.0 0.00 0.00 0.00 78 1021.8
20260901141601 84 311 1.0 5.0 0.00 0.00 0.00 79 1021.7
20260901140103 82 334 3.0 8.0 0.00 0.00 0.00 80 1021.6
20260901134603 82 0 0.0 4.0 0.00 0.00 0.00 80 1021.6
20260901133108 81 0 0.0 3.0 0.00 0.00 0.00 83 1021.5
20260901131558 80 0 0.0 2.0 0.00 0.00 0.00 84 1021.5
20260901130100 79 330 1.0 4.0 0.00 0.00 0.00 85 1021.4
20260901124554 78 10 0.0 2.0 0.00 0.00 0.00 88 1021.3
20260901123102 77 0 0.0 0.0 0.00 0.00 0.00 90 1021.3
20260901121602 74 0 0.0 0.0 0.00 0.00 0.00 94 1021.1
20260901120059 72 0 0.0 0.0 0.00 0.00 0.00 95 1021.0
20260901114559 71 0 0.0 0.0 0.00 0.00 0.00 95 1020.8
20260901113053 71 0 0.0 0.0 0.00 0.00 0.00 95 1020.5
20260901111611 71 0 0.0 0.0 0.00 0.00 0.00 95 1020.4
20260901104601 71 0 0.0 0.0 0.00 0.00 0.00 94 1020.1
20260901103057 71 0 0.0 0.0 0.00 0.00 0.00 94 1020.1
20260901101552 71 0 0.0 0.0 0.00 0.00 0.00 94 1020.1
20260901094559 71 0 0.0 0.0 0.00 0.00 0.00 94 1020.0
20260901093059 71 0 0.0 0.0 0.00 0.00 0.00 94 1019.8
20260901091607 71 0 0.0 0.0 0.00 0.00 0.00 94 1019.6
20260901090109 71 0 0.0 0.0 0.00 0.00 0.00 93 1019.7
20260901084557 72 0 0.0 0.0 0.00 0.00 0.00 93 1019.7
20260901083101 72 0 0.0 0.0 0.00 0.00 0.00 93 1019.7
20260901081600 72 0 0.0 0.0 0.00 0.00 0.00 93 1019.8
20260901080113 72 0 0.0 0.0 0.00 0.00 0.00 92 1019.7
20260901074559 72 0 0.0 0.0 0.00 0.00 0.00 92 1019.6
20260901073051 72 0 0.0 0.0 0.00 0.00 0.00 92 1019.7
20260901071606 73 0 0.0 0.0 0.00 0.00 0.00 91 1019.6
20260901070105 73 0 0.0 0.0 0.00 0.00 0.00 91 1019.6